Burlington, IA

3:55 AM CDT on July 27, 2017 (GMT -0500)
Burlington Regional

Weather History for KBRL - December, 2012

Change the Weather History Date:

Thursday, December 27, 2012

  Actual Average Record
Temperature  
Mean Temperature 22 °F 26 °F  
Max Temperature 30 °F 34 °F 65 °F (1946)
Min Temperature 13 °F 18 °F -16 °F (1914)
Degree Days  
Heating Degree Days 43 39  
Month to date heating degree days 796 958  
Since 1 July heating degree days 2035 2031  
Cooling Degree Days 0 0  
Month to date cooling degree days 0 0  
Year to date cooling degree days 1287 1207  
Moisture  
Dew Point 18 °F    
Average Humidity 76    
Maximum Humidity 88    
Minimum Humidity 63    
Precipitation  
Precipitation 0.00 in 0.06 in 1.23 in (2008)
Month to date precipitation 1.43 1.88  
Year to date precipitation 23.82 38.27  
Sea Level Pressure  
Sea Level Pressure 30.16 in    
Wind  
Wind Speed 7 mph (East)    
Max Wind Speed 15 mph    
Max Gust Speed 20 mph    
Visibility 10 miles    
Events      
T = Trace of Precipitation, MM = Missing Value Source: NWS Daily Summary

Daily Weather History Graph

Daily Weather History Graph

Search for Another Location

Airport or City:

Trip Planner

Search our weather history database for the weather conditions in past years. The results will help you decide how hot, cold, wet, or windy it might be!

Date:

Astronomy

Dec. 27, 2012 Rise Set
Actual Time 7:27 AM CST 4:44 PM CST
Civil Twilight 6:56 AM CST 5:15 PM CST
Nautical Twilight 6:22 AM CST 5:49 PM CST
Astronomical Twilight 5:49 AM CST 6:22 PM CST
Moon 4:27 PM CST 6:38 AM CST
Length of Visible Light 10h 18m
Length of Day
9h 16m
Full, 100% of the Moon is Illuminated
Dec 27
Full
Dec 28
Full
Jan 4
Last Quarter
Jan 11
New
Jan 18
First Quarter

Hourly Weather History & Observations

Time (CST) Temp. Windchill Dew Point Humidity Pressure Visibility Wind Dir Wind Speed Gust Speed Precip Events Conditions
12:53 AM 21.9 °F 13.4 °F 17.1 °F 82% 30.19 in 10.0 mi NNE 6.9 mph - N/A   Overcast
1:53 AM 19.0 °F 11.1 °F 15.1 °F 85% 30.19 in 10.0 mi North 5.8 mph - N/A   Mostly Cloudy
2:53 AM 19.9 °F 13.4 °F 15.1 °F 81% 30.21 in 10.0 mi NNW 4.6 mph - N/A   Scattered Clouds
3:53 AM 18.0 °F 11.1 °F 14.0 °F 84% 30.22 in 10.0 mi NNW 4.6 mph - N/A   Clear
4:53 AM 16.0 °F 8.8 °F 12.9 °F 88% 30.21 in 10.0 mi North 4.6 mph - N/A   Clear
5:53 AM 15.1 °F 6.4 °F 12.0 °F 88% 30.22 in 10.0 mi North 5.8 mph - N/A   Clear
6:53 AM 14.0 °F 6.5 °F 10.0 °F 84% 30.21 in 10.0 mi NNE 4.6 mph - N/A   Clear
7:53 AM 17.1 °F 7.6 °F 12.9 °F 84% 30.21 in 10.0 mi NE 6.9 mph - N/A   Clear
8:53 AM 19.0 °F 12.3 °F 12.9 °F 77% 30.21 in 10.0 mi ENE 4.6 mph - N/A   Clear
9:53 AM 21.0 °F - 15.1 °F 78% 30.24 in 10.0 mi Calm Calm - N/A   Mostly Cloudy
10:53 AM 23.0 °F 15.8 °F 16.0 °F 74% 30.20 in 10.0 mi East 5.8 mph - N/A   Overcast
11:53 AM 26.1 °F 19.4 °F 18.0 °F 71% 30.19 in 10.0 mi ESE 5.8 mph - N/A   Overcast
12:53 PM 28.9 °F 22.8 °F 19.0 °F 67% 30.16 in 10.0 mi East 5.8 mph - N/A   Scattered Clouds
1:18 PM 28.4 °F 23.3 °F 19.4 °F 69% 30.12 in 10.0 mi ENE 4.6 mph - N/A   Mostly Cloudy
1:53 PM 30.0 °F 23.2 °F 19.0 °F 64% 30.14 in 10.0 mi SE 6.9 mph - N/A   Overcast
2:20 PM 30.2 °F 20.8 °F 19.4 °F 64% 30.10 in 10.0 mi ESE 11.5 mph - N/A   Overcast
2:53 PM 30.0 °F 20.0 °F 19.0 °F 64% 30.12 in 10.0 mi ESE 12.7 mph - N/A   Clear
3:53 PM 28.9 °F 19.2 °F 19.0 °F 67% 30.11 in 10.0 mi SE 11.5 mph - N/A   Mostly Cloudy
4:21 PM 28.4 °F 21.2 °F 19.4 °F 69% 30.09 in 10.0 mi SE 6.9 mph - N/A   Mostly Cloudy
4:53 PM 28.9 °F 23.9 °F 21.0 °F 72% 30.12 in 10.0 mi ESE 4.6 mph - N/A   Overcast
5:53 PM 28.9 °F 20.4 °F 21.9 °F 75% 30.12 in 10.0 mi ESE 9.2 mph - N/A   Overcast
6:53 PM 28.0 °F 20.0 °F 21.0 °F 75% 30.13 in 10.0 mi SE 8.1 mph - N/A   Overcast
7:53 PM 28.0 °F 20.0 °F 21.0 °F 75% 30.13 in 10.0 mi SE 8.1 mph - N/A   Overcast
8:53 PM 28.0 °F 20.0 °F 21.0 °F 75% 30.12 in 10.0 mi ESE 8.1 mph - N/A   Overcast
9:53 PM 28.0 °F 20.0 °F 21.0 °F 75% 30.10 in 10.0 mi SE 8.1 mph - N/A   Overcast
10:53 PM 28.0 °F 20.0 °F 21.9 °F 78% 30.10 in 10.0 mi ESE 8.1 mph - N/A   Overcast
11:53 PM 28.0 °F 20.8 °F 21.9 °F 78% 30.09 in 10.0 mi ESE 6.9 mph - N/A   Overcast